Home   Weather   Ciudad del Este   Past weeks

Flag for Paraguay Past Weather in Ciudad del Este, Paraguay — Yesterday and Last 2 Weeks

77 °F


Feels Like: 79 °F
Forecast: 66 / 82 °F
Wind: 7 mph from South

Location: Foz Do Iguacu Aeroporto

Current Time: Oct 21, 2016 at 5:23:26 PM

Latest Report: Oct 21, 2016 at 5:00 PM

Visibility: 10 mi

Pressure: 29.95 "Hg

Humidity: 54%

Dew Point: 59 °F

Location of Ciudad del EsteLocation

Past Weather in Ciudad del Este — Graph


Ciudad del Este Temperature Yesterday

Maximum temperature yesterday: 77 °F (at 12:00 AM)
Minimum temperature yesterday: 66 °F (at 10:00 AM)
Average temperature yesterday: 72 °F

High & Low Weather Summary for the Past Weeks

High99 °F (Oct 17, 4:00 PM)100% (Oct 7, 2:00 AM)30.12 "Hg (Oct 7, 2:00 AM)
Low50 °F (Oct 9, 5:00 AM)23% (Oct 9, 4:00 PM)29.65 "Hg (Oct 16, 6:00 PM)
Average73 °F74%29.87 "Hg
* Reported Oct 6 4:00 PM — Oct 21 4:00 PM, Ciudad del Este, Weather by CustomWeather, © 2016

Note: Actual official high and low records may vary slightly from our data, if they occured in-between our weather recording intervals... More about our weather records


Ciudad del Este Weather History for the Previous 24 Hours

Scroll right to see more
Time TempWeatherWind HumidityBarometerVisibility
4:00 PM
Fri, Oct 21
77 °FSunny.7 mph54%29.95 "Hg10 mi
3:00 PM77 °FSunny.8 mph54%29.95 "Hg10 mi
2:00 PM77 °FSunny.9 mph54%29.98 "Hg10 mi
1:00 PM77 °FSunny.8 mph54%29.98 "Hg10 mi
12:00 PM75 °FSunny.6 mph57%30.01 "Hg10 mi
11:00 AM73 °FSunny.6 mph65%30.04 "Hg10 mi
10:00 AM70 °FSunny.7 mph69%30.04 "Hg10 mi
9:00 AM66 °FScattered clouds.7 mph78%30.04 "HgN/A
8:00 AM64 °FSunny.7 mph83%30.01 "Hg10 mi
7:00 AM61 °FPartly sunny.5 mph94%30.01 "HgN/A
6:00 AM61 °FBroken clouds.5 mph94%29.98 "HgN/A
5:00 AM63 °FClear.3 mph88%29.98 "Hg10 mi
4:00 AM63 °FClear.2 mph94%29.95 "Hg10 mi
3:00 AM63 °FClear.3 mph94%29.95 "Hg10 mi
2:00 AM64 °FClear.2 mph88%29.95 "Hg10 mi
1:00 AM64 °FClear.2 mph88%29.95 "Hg10 mi
12:00 AM66 °FClear.3 mph83%29.95 "Hg10 mi
11:00 PM
Thu, Oct 20
66 °FClear.3 mph83%29.95 "Hg10 mi
10:00 PM68 °FClear.3 mph83%29.95 "Hg10 mi
9:00 PM70 °FClear.3 mph83%29.92 "Hg10 mi
8:00 PM70 °FClear.2 mph88%29.86 "Hg10 mi
7:00 PM70 °FClear.2 mph94%29.86 "Hg10 mi
6:00 PM73 °FBroken clouds.3 mph83%29.83 "HgN/A
5:00 PM73 °FPartly sunny.2 mph83%29.83 "HgN/A
Weather by CustomWeather, © 2016

See weather overviewHow to use our weather pages